Regional Weather Roundup
Issued by NWS Grand Forks, ND

Home | Current Version | Previous Version | Text Only | Print | Product List | Glossary On
Versions: 1 2 3 4 5 6 7 8 9 10 11 12 13 14 15 16 17 18 19 20 21 22 23 24 25 26 27 28 29 30 31 32 33 34 35 36 37 38 39 40 41 42 43 44 45 46 47 48 49 50
000
ASUS43 KFGF 291231
RWRFGF
PRAIRIE TO PINES  WEATHER ROUNDUP
NATIONAL WEATHER SERVICE EASTERN NORTH DAKOTA/GRAND FORKS ND
700 AM CDT SUN MAR 29 2015

 **SATELLITE DATA USED TO AUGMENT SKY COVER AT AUTOMATED STATIONS**
 *****  WEATHER ACROSS EASTERN NORTH DAKOTA  *****

CITY           SKY/WX    TMP DP  RH WIND       PRES   REMARKS
GRAND FORKS    CLOUDY    39  34  82 N31G44    29.59R
6HR MIN TEMP:  39; 6HR MAX TEMP:  47; 6HR PCP:  0.04;

GRAND FRKS AFB CLOUDY    39  33  80 N29G43    29.61R
GRAND FRKS NWS   N/A     36 N/A N/A N28         N/A
DEVILS LAKE    PTCLDY    37  30  75 NW22G30   29.74R
6HR MIN TEMP:  37; 6HR MAX TEMP:  48;

FARGO          LGT RAIN  43  38  82 N30G46    29.56R
WAHPETON ARPT  CLOUDY    45  41  87 NW26G33   29.56R
$$

 ***** WEATHER ACROSS CENTRAL AND WESTERN NORTH DAKOTA  *****

CITY           SKY/WX    TMP DP  RH WIND       PRES   REMARKS
BISMARCK       CLOUDY    40  34  79 NW24G37   29.91R
6HR MIN TEMP:  40; 6HR MAX TEMP:  50; 6HR PCP:  0.13;

MINOT          CLEAR     36  31  82 W28G33    29.89R
6HR MIN TEMP:  36; 6HR MAX TEMP:  49; 6HR PCP:  0.01;

JAMESTOWN      CLOUDY    40  38  93 NW33G45   29.74R
6HR MIN TEMP:  40; 6HR MAX TEMP:  50; 6HR PCP:  0.28;

MINOT AFB      CLEAR     35  35  99 NW21G26   29.88R WCI  24
GARRISON         N/A     36  32  85 NW26G36   29.91R
WILLISTON      CLEAR     35  32  88 NW13      30.02R
6HR MIN TEMP:  35; 6HR MAX TEMP:  42; 6HR PCP: TRACE;

DICKINSON      CLEAR     34  31  88 NW10      30.02R
6HR MIN TEMP:  34; 6HR MAX TEMP:  46; 6HR PCP:  0.09;

HETTINGER      CLEAR     35  31  85 NW24G31   30.03R WCI  23
6HR MIN TEMP:  35; 6HR MAX TEMP:  46; 6HR PCP:  0.07;

$$

 *****  OTHER AIRPORT OBSERVATIONS IN OUR AREA  *****

CITY           SKY/WX    TMP DP  RH WIND       PRES   REMARKS
WALHALLA         N/A     36  36 100 NW26G39   29.70R
GRAFTON AIRPOR NOT AVBL
VALLEY CITY AR CLOUDY    39  39 100 NW22G37   29.67R
CANDO          FAIR      36  32  87 NW24G30   29.76R
CAVALIER APRT  CLOUDY    36  32  87 NW25G36   29.67R
GWINNER          N/A     43  43 100 NW32G39     N/A
SHEYENNE NWR     N/A     44  42  91 NW16      29.95S
ROLLA          FAIR      34  34 100 NW26G40   29.79R WCI  21
 ***** THE ABOVE OBSERVATIONS ARE NON NWS ARE NOT QUALITY
       CONTROLLED AND MAY MIS-REPORT RAIN FOR SNOW...
$$

  *****  WEATHER ACROSS NORTHERN MINNESOTA  *****

CITY           SKY/WX    TMP DP  RH WIND       PRES   REMARKS
FLAG ISLAND    LGT RAIN  37  36  93 NW26      29.43R
WARROAD        LGT RAIN  37  34  87 NW18      29.47R
ROSEAU         CLOUDY    37  34  87 NW18G25   29.50R
HALLOCK        CLOUDY    36  34  93 NW28G36   29.61R
THF RVR FALLS  CLOUDY    39  37  93 NW23G31   29.52R
6HR MIN TEMP:  39; 6HR MAX TEMP:  41; 6HR PCP:  0.09;

BAUDETTE       LGT RAIN  37  35  92 W8        29.41S FOG
6HR MIN TEMP:  36; 6HR MAX TEMP:  39; 6HR PCP:  0.32;

WASKISH        LGT RAIN  37  36  93 CALM      29.43S
CROOKSTON      MIX PCPN  36  36 100 N32G41    29.58R
STEPHEN NDAWN    N/A     36  36 100 N26         N/A
GREENBUSH NDAW   N/A     37  34  87 NW26        N/A
$$
  *****  WEATHER ACROSS CENTRAL AND WEST MINNESOTA  *****

CITY           SKY/WX    TMP DP  RH WIND       PRES   REMARKS
FOSSTON        CLOUDY    37  37 100 NW21G28   29.48R
BEMIDJI        LGT RAIN  36  35  96 SW8       29.44R
PARK RAPIDS    CLOUDY    37  34  89 S8        29.45F
6HR MIN TEMP:  37; 6HR MAX TEMP:  40; 6HR PCP:  0.16;

ELBOW LAKE     CLOUDY    44  41  88 W23G31    29.52R
6HR MIN TEMP:  36; 6HR MAX TEMP:  43;

WADENA         RAIN      37  36  93 SW12      29.46S
DETROIT LAKES  DRIZZLE   41  39  93 W17G26    29.49R
MOORHEAD       HVY RAIN  41  41 100 NW30G38   29.57R
FERGUS FALLS   RAIN      45  43  93 NW23G29   29.54R
MORRIS MN      MOCLDY    45  39  81 W22G28    29.53S
STAPLES        DRIZZLE   36  32  87 S14       29.48F
$$
  *****  WEATHER ELSEWHERE ACROSS MINNESOTA  *****

CITY           SKY/WX    TMP DP  RH WIND       PRES   REMARKS
DULUTH         CLOUDY    35  26  69 SW20G32   29.52F WCI  24
6HR MIN TEMP:  34; 6HR MAX TEMP:  36; 6HR PCP:  0.01;

INTRNTL FALLS  LGT SNOW  33  31  92 SW7       29.42S FOG
6HR MIN TEMP:  33; 6HR MAX TEMP:  38; 6HR PCP:  0.27;

ELY            LGT SNOW  32  28  86 SW13G23   29.46F WCI  22
CLOQUET        MIX PCPN  34  27  75 S18G29    29.51F WCI  23
WHEATON        CLOUDY    43  37  81 W23G31    29.57R
BRAINERD       CLOUDY    36  30  79 S18G26    29.50F
6HR MIN TEMP:  35; 6HR MAX TEMP:  37; 6HR PCP: TRACE;

HIBBING        LGT RAIN  33  27  78 S9        29.48F
6HR MIN TEMP:  32; 6HR MAX TEMP:  34; 6HR PCP:  0.03;

ALEXANDRIA     CLOUDY    39  34  82 SW12      29.52F
6HR MIN TEMP:  37; 6HR MAX TEMP:  39; 6HR PCP:  0.02;

SAINT CLOUD    CLOUDY    36  31  82 S16       29.56F
6HR MIN TEMP:  35; 6HR MAX TEMP:  38; 6HR PCP:  0.04;

MINNEAPOLIS    PTCLDY    35  30  82 S14       29.66F
6HR MIN TEMP:  34; 6HR MAX TEMP:  37; 6HR PCP:  0.11;

$$

  *****  WEATHER ACROSS SOUTH DAKOTA  *****

CITY           SKY/WX    TMP DP  RH WIND       PRES   REMARKS
SIOUX FALLS    PTCLDY    45  37  73 W13       29.71R
6HR MIN TEMP:  42; 6HR MAX TEMP:  46; 6HR PCP: TRACE;

BROOKINGS      NOT AVBL
WATERTOWN      PTCLDY    43  35  73 W20G28    29.64R
6HR MIN TEMP:  42; 6HR MAX TEMP:  45; 6HR PCP: TRACE;

HURON          CLEAR     48  37  65 NW29G40   29.72R
6HR MIN TEMP:  43; 6HR MAX TEMP:  48;

SISSETON         N/A     46  41  82 NW28G39   29.55R
ABERDEEN       LGT RAIN  45  40  82 NW31G47   29.71R
6HR MIN TEMP:  39; 6HR MAX TEMP:  48; 6HR PCP:  0.01;

MITCHELL       CLEAR     47  35  63 W15       29.77R
PIERRE         CLOUDY    46  39  76 NW43G55   29.87R
6HR MIN TEMP:  44; 6HR MAX TEMP:  53; 6HR PCP: TRACE;

MOBRIDGE       CLOUDY    43  38  82 NW31G45   29.84R
RAPID CITY     PTCLDY    44  29  55 NW44G64   30.03R
6HR MIN TEMP:  44; 6HR MAX TEMP:  55;

$$

  *****  SOME WEATHER IN NEARBY STATES *****

CITY           SKY/WX    TMP DP  RH WIND       PRES   REMARKS
GLASGOW MT     CLEAR     34  32  92 W7        30.10R
6HR MIN TEMP:  34; 6HR MAX TEMP:  44;

GREAT FALLS MT PTCLDY    39  27  62 SW15      30.17R
6HR MIN TEMP:  37; 6HR MAX TEMP:  42;

CHEYENNE WY    CLEAR     38  15  39 N25G38    30.21R
6HR MIN TEMP:  38; 6HR MAX TEMP:  55;

SCOTTSBLUFF NE CLEAR     45  29  53 NW31G41   30.17R
6HR MIN TEMP:  43; 6HR MAX TEMP:  54;

OMAHA NE       MOCLDY    42  34  73 S10       29.87S
6HR MIN TEMP:  42; 6HR MAX TEMP:  44; 6HR PCP: TRACE;

DES MOINES IA  CLOUDY    39  34  82 S20       29.86F
6HR MIN TEMP:  37; 6HR MAX TEMP:  39; 6HR PCP:  0.03;

DAVENPORT IA   PTCLDY    33  19  56 S23G29    30.00F WCI  21
6HR MIN TEMP:  31; 6HR MAX TEMP:  33;

CHICAGO IL     MOCLDY    31  15  52 S16       30.13S WCI  20
6HR MIN TEMP:  23; 6HR MAX TEMP:  31;

EAU CLAIRE WI  FRZ RAIN  32  26  78 S18       29.72F WCI  20
6HR MIN TEMP:  32; 6HR MAX TEMP:  35; 6HR PCP:  0.02;

LA CROSSE WI   FRZ RAIN  34  27  75 S22G33    29.81F WCI  22
6HR MIN TEMP:  34; 6HR MAX TEMP:  37; 6HR PCP: TRACE;

$$

  *****  SOME NATIONAL WEATHER *****

CITY           SKY/WX    TMP DP  RH WIND       PRES   REMARKS
LA GUARDIA NY  PTSUNNY   28   8  43 NW15      30.26R WCI  16
6HR MIN TEMP:  27; 6HR MAX TEMP:  28;

RALEIGH NC     SUNNY     25  16  68 CALM      30.41R
6HR MIN TEMP:  22; 6HR MAX TEMP:  30;

ATLANTA GA     PTCLDY    31  18  58 CALM      30.35R
6HR MIN TEMP:  31; 6HR MAX TEMP:  37;

NEW ORLEANS LA PTCLDY    56  51  84 E7        30.26R
6HR MIN TEMP:  56; 6HR MAX TEMP:  59;

OKLAHOMA CITY  CLEAR     50  43  77 S17       29.93R
6HR MIN TEMP:  50; 6HR MAX TEMP:  59;

ALBUQUERQUE NM CLEAR     46  14  27 SE7       30.20R
6HR MIN TEMP:  46; 6HR MAX TEMP:  64;

SALT LAKE CITY CLEAR     40  27  59 CALM      30.29R
6HR MIN TEMP:  39; 6HR MAX TEMP:  50;



USA.gov is the U.S. government's official web portal to all federal, state and local government web resources and services.